[Date Prev][Date Next][Thread Prev][Thread Next][Date Index][Thread Index][JAMSAT Home]

[jamsat-news:1847] jas2info #325 / CUTE-1 #8 / XI-IV #6


========================   最新情報   ==============================

        Last updated  27Sep2003  21:15(JST)   #325 

====================================================================
   
1)アマチュア通信衛星情報、FOシリーズの軌道要素、テレメトリ、
QSOの状況等をまとめてみました.
 
 新たにCUTE−気XI-IVの観測テレメトリーの一部も掲載させて頂きました。

 東京工業大学 CUTE-気離曄璽爛據璽
     http://lss.mes.titech.ac.jp/ssp/cubesat/index.html
 E豕大学 XI-IVのホームページ
     http://www.space.t.u-tokyo.ac.jp/cubesat/index.html 
   
。藤蓮檻横垢錬横娃娃廓9月27日(土)の15:04(JST)のパスでは
 アナログ系運用でCWテレメトリーが聞こえてきました。ここにその取得した
 テレメトリーと分析結果を報告しておきます。

AS35116C  27Sep2003
15:04-15:17(JST)
AOS   MEL  LOS  Elev
  4   289  213  47.3
Freq. 435.802-.788MHz
TAPE No.127 A 0-1030)

HI HI A6 C7 90 0D 86 9E 10 0D 00 3B 67 27 83 47 93 93 B0 69 B8 B7 B8 B8 B5 
HI HI A6 07 90 DD 87 9E 10 0D 00 3B 75 29 79 44 90 90 B0 87 B7 B7 B8 B8 B5 
HI HI A6 C7 90 0D 86 9E 10 0D 00 3B 5E 31 83 60 90 8F B0 86 B7 B7 B8 B8 B4 
HI HI A6 C7 90 DD 8C 9E 10 0D 00 3B 5B 3E 8A 60 8F 90 B0 85 B8 B6 B8 B8 B4 
HI HI A6 C7 90 DD    9E 10 0D 00 3B 86 45 76 60 8F 90 B0    B8 B6 B8 B8 B4 
HI HI A6 07 90 DD 81 9E 10 0D 07 3B 43 44 82 60 8F 90 B0 88 B8 B6 B8 B8 B4 
HI HI A6 C7 90 DD 89 9E 10 0D 00 3B 8F 4B 7A 43 92 92 B0 79 B8 B6 B8 B8 B4 
HI HI A6 C7 84 DD 8C 9E 10 0D A7 3B 48 58 7E 5F 8F 90 B0 68 B8 B6 B8 B8 B4 
HI HI A6 C7 90 DD 91 9E 10 0D 00 3B 83 56 81 60 8F 8F B0 6A B8 B6 B8 B8 B4 
HI HI A6 C7 90 DD 96 9E 10 0D 00 3B 55 61 7E 5F 8F 8F B0 91 B8 B6 B7 B8 B4 
HI HI A6 C7 90 DD 9B 9E 0A 0D 00 3B 8F 67 7E 60 8F 90 B0 8E B8 B6 B7 B7 B4 
HI HI A6 C7 90 DD 80 9E 10 0D 00 3B 45 67 80 60 8F 90 B0 7F B8 B6 B7 B7 B4 
HI HI A6 C7 90 DD 86 9E 10 0D 00 3B 7D 79 82 60 8F 90 B0 8A B8 B5 B7 B7 B4 
HI HI A6 C7 90 DD 8B 9E 10 0D 00 3B 63 77 7C 60 8F 90 B0 7A B8 B5 B7 B7 B5 
HI HI A6 C7 90 DD 90 9E 10 0D 00 4B 5E 81 80 60 90 90 B0 77 B7 B5 B7 B7 B4 
HI HI A6 C7 90 DD 96 9E 05 0D 0A 3B 7D 8D 7E 60 90 91 B0 58 B7 B5 B7 B7 B5 

AS35089C  25Sep2003
15:04-15:21(JST)
AOS   MEL  LOS  Elev
  3   290  215  44.2
Freq. 435.805-.788MHz
TAPE No.126 B 2180-2880END)
                                                91 91 9F 7F B9 B7 B8 B8 B4 
HI HI A6 C7 90 DD 94 9E  5 0D 00 3B 57 23 81 60 91 91 9F 95 B9 B7 B8 B8 B4 
HI HI A6 C7 90 DD 96 9E 1E 0D 00 3B 73 20 79 60 91 86 9F 92 B8 B7 B8 B8 B4 
HI HI A6 07 90 DD 9B 9E FF 0D 00 3B 59 22 81 60 92 91 9F 7F B9 B7 B8 B8 B4 
HI HI A6 07 90 DD 81 9E 10 0D 00 3B 65 23 7A 42 93 93 B0 65 B9 B7 B8 B8 B4 
HI HI A6 07 90 DD 86 9E 10 0D 00 3B 6B 26 83 46 94 92 B1 8D B9 B7 B8 B8 B4 
HI HI A6 07 90 DD 8B 9E 10 0D 00 3B 64 2B 83 43 91 91 B0 73 B9 B7 B8 B8 B4 
HI HI A6 07 90 DD 91 9E 10 0D 00 3B 72 34 6E 60 94 92 B0 85 B8 B7 B8 B8 B4 
HI HI A6 07 90 DD 96 9E 0A 0D 00 3B 53 2D 83 60 90 90 9F 89 B8 B7 B8 B8 B4 
HI HI A6 C7 90 DD 9C 9E 10 0D 00 3B 82 32 7F 60 90 91 B0 65 B8 B7 B8 B8 B4 
HI HI A6 07 90 DD 81 9E 10 0D 00 3B 76 39 7D 5F 8F 90 B0 8B B8 B7 B8 B8 B4 
HI HI A6 C7 90 DD 86 9E 10 0D 00 3B 5B 3E 83 60 8F 90 B0 77 B8 B7 B8 B8 B4 
HI HI A6 C7 (0 DD 8C 9E 10 0D 00 3B 78 40 7B 60 8F 90 B0 88 B8 B6 B8 B8 B4 
HI HI A6 07 90 DD 91 9E 10 0D 00 3B 3F 4A 82 60 90 91 B0 7A B8 B6 B8 B8 B4 
HI HI A6 C7 90 DD 97 9E 10 0D 00 3B 8C 55 79 5F 8F 8F 9F 96 B8 B6 B8 B8 B5 
HI HI A6 C7 90 DD 9C 9E 10 0D 00 3B 43 4E 7F 60 8F 90 B0 76 B8 B6 B8 B8 B4 
HI HI A6 C7 90 DD 81 9E 10 0D 00 3B 8D 63 7F 60 8F 90 B0 80 B8 B6 B8 B8 B4 
HI HI A6 C7 90 DD 86 9E 10 0D 00 3B 5A 60 81 60 8F 90 B0 A5 B8 B6 B8 B8 B5 
HI HI A6 C7 90 DD 8C 9E 10 0D 00 3B 70 67 81 5F 8F 90 B0 71 B8 B6 B8 B8 B4 
HI HI A6 C7 90 DD 91 9E 10 0D 00 3B 86 6E 7B 60 8F 90 B0 77 B8 B6 B8 B7 B5 
HI HI A6 C7 90 DD 96 9E 10 0D 00 3B 4B 79 85 60 90 90 B0 73 B8 B6 B7 B7 B4 
HI HI A6 C7 90 DD 9C 9E 10 0D 00 3B 93 78 7C 5F 90 90 B0 85 B8 B5 B7 B7 B5 
HI HI A6 C7 90 DD 81 9E 10 0D 00 3B 49 81 81 60 90 91 B0 6D B8 B5 B7 B7 B5 
HI HI A6 07 90 DD 85 9E 10 0D 00 3B 6C 8B 81 60 90

AS35088C  25Sep2003
13:18-13:36(JST)
AOS   MEL  LOS  Elev
 25    98  167  32.6
Freq. 435.804-.789MHz
TAPE No.126 B 1320-2180)

HI HI A6 C7 90 DD 85 9E 10 0D 00 3B 70 25 78 60 74 93 B0 7C B9 B7 B8 B8 B4 
HI HI A6 C7 90 DD 8B 9E 10 0D 00 3B 65 26 81 60 91 91 B0 7E B9 B7 B8 B8 B4 
HI HI A6 07 90 DD 90 9E 10 0D 00 3B 6F 29 79 60 91 90 B0 92 B8 B7 B8 B8 B4 
HI HI A6 C7 90 DD 96 9E 05 0D 00 3B 74 29 7D 60 91 90 B0 78 B8 B7 B8 B8 B4 
HI HI A6 C7 90 DD 9B 9E 10 0D 00 3B 55 2E 7A 60 90 90 B0 6C B8 B7 B8 B8 B4 
HI HI A6 C7 90 DD 80 9E 10 0D 00 3B 7B 2C 7F 60 90 90 B0 82 B8 B7 B8 B8 B4 
HI HI A6 C7 90 DD 86 9E 10 0D 00 3B 56 35 7E 60 90 91 B1 8E B8 B7 B8 B8 B4 
HI HI A6 07 90 DD 8B 9E 10 0D 00 3B 74 38 84 5F 90 91 B0 93 B8 B7 B8 B8 B4 
HI HI A6 C7 90 DD 90 9E 10 0D 00 3B 6B 39 84 60 90 91 B0 85 B8 B7 B8 B8 B4  
HI HI A6 C7 90 DD 98 9E 10 0D 00 3B 6D 40 85 60 90 91 B0 7E B8 B7 B8 B8 B4 
HI HI A6 C7 90 DD 9B 9E 10 0D 00 3B 75 40 85 60 90 91 B0 6C B8 B6 B8 B8 B4 
HI HI A6 C7 90 DD 94 9E 10 0D 00 3B 4F 48 80 60 90 91 B0 86 B8 B6 B8 B8 B4 
HI HI A6 C7 90 DD 86 9E 10 0D 00 3B 55 66 7D 60 8F 8F B0 8E B8 B7 B8 B8 B4 
HI HI A6 C7 90 DD 8B 9E 10 0D 00 3B 58 59 7F 60 90 91 B0 69 B8 B6 B8 B8 B4 
HI HI A6 C7 90 DD 91 9E 10 0D 00 3B 52 5F 7F 60 8F 90 B0 79 B8 B6 B8 B8 B4 
HI HI A6 C7 81 DD 96 9E FF 0D 00 3B 79 5E 7D 5F 8F 90 B0 78 B8 B6 B8 B8 B4 
HI HI A6 C7 90 DD 9B 9E 0A 0D 00 3B 6A 6A 89 60 8F 90 B0 86 B8 B6 B8 B8 B4 
HI HI A6 C7 90 DD 80 9E 10 0D 00 3B 71 6B 7C 60 8F 90 B1 6B B8 B6 B8 B8 B4
HI HI A6 C7 90 DD 86 9E 10 0D 00 3B 56 74 82 60 8F 90 B0 75 B8 B6 B7 B7 B4
HI HI A6 C7 90 DD 8B 9E 10 0D 00 3B 81 7C 82 60 8F 90 B0 8A B8 B5 B7 B7 B5 
HI HI A6 C7 90 DD 90 9E 10 0D 00 3B 43 7A 86 60 90 90 B0 7D B7 B6 B7 B7 B5 
HI HI A6 C7 90 DD 96 9E 10 0D 08 4B 8C 84 7F 60 90 91 B0 78 B7 B5 B7 B7 B5 
HI HI A6 C7 90 DD 96 9E 10 0D 08 4B 85 85 7C 60 91 91 B0 6C B7 B5 B7 B7 B5
HI HI A6 C7 90 DD 90 9E 10 0D 08 65 75 89 82 60 91 91 B0 A1 B7 B5 B7 B7 B5 
 

東京工業大学のCUTE-気離謄譽瓮肇蠅取得できましたので一部を
 掲載させて頂きました。

CUTE 1259CW
Sat 27Sep2003
17:37-17:47(JST)
Freq. 436.846-.828Hz
(TAPE CUTE-XI-IV  No.8 A 1810-2280) 

CUTE  1 A5 74 7F DF FFFF 4710 FF FF 66 97 
CUTE 6B A5 73 8E E  FFFF 4710 FF FF 66 97  
CUTE    A5 70 80 E2 FFFF 4710 FF FF 66 96 
CUTE 6B A4 6C 80 DF FFFF 4710 FF FF 66 96 
CUTE 6  A5 74 7F DE FFFF 4710 FF FF 66 96 
CUTE    A5 73 80 DF FFFF 4710 FF FF 66 96 
CUTE 77 A4 75 7F E3 FFFF 4710 FF FF 67 96 
CUTE 75 A4 74 7F E0 FFFF 4710 FF FF 66 96 
CUTE 7A A4 74 80 E3 FFFF 4710 FF FF 66 96 
CUTE 7E A4 73 7F E3 FFFF 4710 FF FF 66 97 
CUTE 7B A4 71 7F DE FFFF 4710 FF FF 66 96 

E豕大学打のXI-IVのテレメトリが取得できましたので一部を掲載
 させて頂きました。

XI-IV 1259CW
Sat 27Sep2003
18:27-18:40(JST)
Freq. 436.858-.840Hz
(TAPE CUTE-XI-IV  No.8 A 2280-2880) 

WWW.SPACE.T.U-TOKYO.AC.JP 
UT21277D5 
UT370B80057 
UT4314361 
UT5400002 
UT65936555545C 

UT1WWW.SPACE.T.U-TOKYO.AC.JP 
UT2127843 
UT390B80062 
UT4314357 
UT5202101 
UT67466666569 


------------------------  FO-29の軌道要素 ------------------------------  
     
  ■ 軌道要素1:「jamsat−keps:1339」より         
          SB KEPS @ AMSAT  $ORB03268.N
          2Line Orbital Elements 03268.AMSAT

HR AMSAT ORBITAL ELEMENTS FOR AMATEUR SATELLITES IN NASA FORMAT
>FROM WA5QGD FORT WORTH,TX September 25, 2003
SEND SUBSCRIBE/UNSUBSCRIBE TO majordomo@amsat.org ONLY
BID: ORB03268.N

 DECODE 2-LINE ELSETS WITH THE FOLLOWING KEY:
1 AAAAAU 00  0  0 BBBBB.BBBBBBBB  .CCCCCCCC  00000-0  00000-0 0  DDDZ
2 AAAAA EEE.EEEE FFF.FFFF GGGGGGG HHH.HHHH III.IIII JJ.JJJJJJJJKKKKKZ
KEY: A-CATALOGNUM B-EPOCHTIME C-DECAY D-ELSETNUM E-INCLINATION F-RAAN
G-ECCENTRICITY H-ARGPERIGEE I-MNANOM J-MNMOTION K-ORBITNUM Z-CHECKSUM

FO-29
1 24278U 96046B   03267.93326126  .00000006  00000-0  42305-4 0 06461
2 24278 098.5714 029.8860 0351308 010.8995 349.9510 13.52886501350833

 ■ 軌道要素2:「jamsat−keps:1340」より 

        SB KEPS @ AMSAT  $ORB03268.O
        Orbital Elements  03268.OSCAR

HR AMSAT ORBITAL ELEMENTS FOR OSCAR SATELLITES
>FROM WA5QGD FORT WORTH,TX September 25, 2003
SEND SUBSCRIBE/UNSUBSCRIBE TO majordomo@amsat.org ONLY
BID: ORB03268.O
TO ALL RADIO AMATEURS BT

Satellite: FO-29
Catalog number: 24278
Epoch time:      03267.93326126
Element set:    0646
Inclination:      098.5714 deg
RA of node:       029.8860 deg
Eccentricity:    0.0351308
Arg of perigee:   010.8995 deg
Mean anomaly:     349.9510 deg
Mean motion:   13.52886501 rev/day
Decay rate:        6.0e-08 rev/day^2
Epoch rev:           35083
Checksum:              326

------------------- FO-29(JAS-2)のテレメトリに関する情報 ----------------
 
2)上記2003年9月27日(土)のテレメトリの15:04(JST)のパスの
    最終行を分析しておきます。

AS35116C  27Sep2003
15:04-15:17(JST)
AOS   MEL  LOS  Elev
  4   289  213  47.3
Freq. 435.802-.788MHz
TAPE No.127 A 0-1030)

HI HI A6 C7 90 DD 96 9E 05 0D 0A 3B 7D 8D 7E 60 90 91 B0 58 B7 B5 B7 B7 B5 

テレメトリ	内   容		換算値	単 位
		
3C	磁気センサーZ軸=	61274.5	[nT]
3D	磁気センサX軸	=	69117.6	[nT]
4A	太陽電池発生電流=	1235.3	[mA]
4B	B充放電電流	=	-118.4	[mA]
4C	B端子電圧	=	15.5	[V]
4D	B中間端子電圧	=	7.0	[V]
5A	バス電圧	=	17.3	[V]
5B	JTA送信電力	=	473.9	[mW]
5C 	構体温度1	=	10.8	[℃]
5D	構体温度2	=	11.6	[℃]
6A	構体温度3	=	10.8	[℃]
6B	構体温度4	=	10.8	[℃]
6C	Bセル温度	=	11.6	[℃]

 ============= FO-29(ふじ3号)のテレメトリ分析、QSO情報等 ==========   

3)[jamsat-bb:14038]のRe:CUTE-1&XI-IV Sept 16 &FO-29で眞田さんが
SSTVの実験を運用されていましたのでしたので転載させて頂きました。。

井地さん、大谷さん、みなさん、
こんばんは、
ji1izr/眞田です。

FO-29で井地さんのCQが聞こえたときに、
送信準備が出来ていればお話をしたかったのですが、
そのときは430MHzのアンテナしか接続して
いなかったので、残念です。
また機会がありましたら、よろしくお願いいたします。
私の方は、前にも書いたのですが、
FO-29でのSSTVを実験しています。
周波数の自動調整とMMSSTVの起動を
1台のパソコンで処理して、ループテストに何度か
成功しています。モードはScottie1が良いようです。
日曜日くらいしか出られないのと、
相手が見つからないので、ループテストで遊んでいる
だけですが・・・。

***************
Masahiro Sanada
     de ji1izr/1
     Itabashi
   Tokyo, Japan
  ji1izr@jarl.com
ji1izr@jamsat.or.jp
***************

 ==========================================================================
 
 4)JARL のホームページに運用予定が記載されていましたので
   ご紹介します.
       ( http://www.jarl.or.jp/Japanese/3_Fuji/new/uy.htm )  
        
        ふじ3号(JAS−2)の運用 
        
**************************************
      高山 秀造
E-mail:stakayam@ktmail.ktokai-u.ac.jp
**************************************